Vorticity
nan nan nan nan nan nan nan nan nan nan nan nan nan nan nan nan nan nan nan nan nan nan nan nan nan nan nan nan nan nan nan nan nan nan nan nan nan nan nan nan nan nan nan nan nan nan nan nan nan nan nan nan nan nan nan nan nan nan nan nan nan nan nan nan nan nan nan nan nan nan nan nan nan nan nan nan nan nan nan nan nan nan nan nan nan nan nan nan nan nan nan nan nan nan nan nan nan nan nan nan nan nan nan
nan 11 11 8 5 3 3 6 7 7 6 6 6 6 6 6 6 5 5 5 5 4 4 4 4 4 4 4 4 4 5 5 5 5 5 5 5 5 5 5 5 5 5 5 4 3 2 3 6 6 4 3 4 4 5 5 5 6 6 6 6 5 7 10 9 7 4 3 3 3 4 5 5 6 8 9 10 13 12 9 7 6 6 5 5 6 4 5 5 5 4 6 5 4 4 4 4 3 3 4 4 4 nan
nan 10 8 6 4 3 3 6 6 6 5 6 6 7 7 6 6 5 5 5 4 4 4 4 4 5 4 4 4 4 5 5 5 5 5 5 5 5 5 5 5 5 5 5 5 4 2 3 5 5 3 3 4 5 6 5 5 6 6 6 5 5 7 9 8 6 3 3 3 3 4 5 7 8 10 10 13 19 18 12 9 6 5 4 4 5 8 14 13 10 8 6 4 4 4 4 4 4 4 4 4 4 nan
nan 8 6 4 4 3 5 6 6 6 5 6 7 7 7 6 6 5 5 5 4 4 4 4 5 5 5 5 5 5 5 5 5 5 5 5 5 5 5 5 5 6 6 6 5 2 1 4 6 6 4 3 4 5 5 5 6 5 6 6 5 4 7 10 9 5 3 3 3 3 4 5 7 9 9 9 13 21 21 14 10 8 7 6 5 6 15 23 20 13 9 5 3 3 4 5 5 5 5 4 4 4 nan
nan 6 5 4 3 5 7 7 7 6 6 6 6 7 6 6 5 5 5 4 4 4 4 5 5 5 5 5 5 5 5 5 5 5 5 5 5 5 6 6 6 6 6 6 4 2 3 5 6 7 5 3 3 4 5 5 6 5 5 5 5 5 7 9 8 4 3 3 3 3 4 5 8 9 8 6 9 14 17 16 13 12 11 8 6 6 15 23 21 15 10 4 3 3 4 5 5 6 6 5 4 4 nan
nan 6 5 4 3 6 8 8 7 7 6 6 6 6 6 5 5 5 5 4 4 4 5 5 5 5 6 6 6 6 6 6 6 6 6 6 5 6 6 7 7 7 7 6 5 4 5 5 5 7 7 5 4 5 5 5 6 5 5 4 4 5 7 9 7 4 3 3 3 4 4 5 6 8 7 4 4 4 11 16 14 15 16 11 6 4 11 14 12 9 6 3 3 4 4 5 5 6 6 6 5 4 nan
nan 7 6 3 2 5 8 8 7 7 6 5 5 5 5 5 4 4 4 4 5 5 5 5 5 6 6 6 6 6 6 6 6 6 6 6 6 6 7 8 8 8 7 6 5 4 6 7 6 7 7 6 6 5 5 6 6 5 4 4 4 5 7 8 7 5 4 4 4 4 4 4 5 7 6 6 4 3 5 9 11 15 18 15 10 5 5 5 4 3 2 2 3 4 4 4 5 6 7 7 6 5 nan
nan 7 6 3 2 5 6 6 6 6 5 4 4 4 5 5 4 4 4 5 5 5 5 5 6 6 6 6 6 6 6 6 6 6 6 5 5 6 7 9 9 9 8 7 6 5 6 7 7 8 7 6 8 7 6 6 6 5 4 4 4 5 6 6 6 5 4 4 5 5 5 4 6 7 6 5 4 2 3 5 8 10 13 15 13 7 4 2 2 2 4 5 5 4 4 4 4 5 6 7 7 6 nan
nan 6 5 2 2 4 5 5 5 4 4 3 3 3 4 4 5 5 5 5 5 5 5 6 6 6 6 6 6 6 6 6 6 5 5 4 5 6 8 9 9 9 8 7 7 6 4 5 7 8 8 8 9 8 5 5 6 4 3 4 4 4 5 6 6 6 6 5 5 5 5 6 7 8 5 4 3 2 1 1 4 5 8 12 12 9 6 5 4 5 6 6 5 4 3 4 4 5 6 6 6 6 nan
nan 6 4 2 2 3 5 5 4 3 3 3 3 3 4 4 5 5 5 5 5 5 5 5 6 6 6 6 6 6 6 6 5 5 4 4 4 5 8 10 10 10 9 8 8 6 3 3 8 8 8 10 10 8 4 4 6 4 4 4 3 4 5 6 7 7 7 6 6 6 6 8 10 9 6 3 2 1 0 -0 1 3 4 6 9 12 10 7 6 6 7 7 5 4 3 3 4 4 5 5 5 5 nan
nan 6 4 2 1 2 4 5 5 4 4 3 4 4 4 4 5 5 5 5 5 5 5 5 5 6 6 6 6 6 6 6 5 4 3 3 4 5 8 10 10 10 10 9 8 6 2 4 7 6 8 11 9 7 4 4 6 4 4 5 4 5 5 6 7 8 8 7 7 6 7 9 11 10 7 4 2 2 2 1 1 1 2 4 6 10 11 10 8 6 6 6 5 4 3 3 4 4 4 4 5 5 nan
nan 7 4 1 0 1 5 7 6 6 5 5 5 5 5 5 5 5 5 5 5 4 4 5 5 5 6 6 6 6 6 5 5 4 3 3 4 5 8 10 11 11 11 10 8 4 1 4 7 7 8 10 7 5 4 5 6 4 4 5 5 6 5 5 5 7 8 8 7 7 7 9 10 9 7 4 4 4 3 3 3 2 2 2 4 8 12 13 10 7 5 4 4 4 4 4 4 4 4 4 4 4 nan
nan 8 4 2 0 2 6 8 8 8 7 7 7 7 6 5 5 5 5 5 5 4 4 4 5 5 5 6 6 6 6 5 4 4 3 3 3 5 7 10 12 13 12 9 4 -2 -0 6 9 8 6 6 7 5 5 6 5 5 5 6 6 5 5 4 4 6 8 9 8 8 7 8 8 7 5 4 3 3 4 4 4 3 2 2 3 6 9 10 9 7 6 5 5 5 5 5 5 5 4 4 4 4 nan
nan 6 4 4 4 5 7 9 9 9 8 8 8 7 6 6 5 5 5 5 5 5 5 5 5 5 5 5 6 6 6 6 5 4 4 3 4 4 7 10 12 12 10 4 0 -0 5 8 8 7 5 5 7 5 4 5 5 6 5 6 6 5 5 5 4 6 8 9 9 8 7 6 6 5 4 3 3 3 3 4 4 4 4 4 4 5 6 8 7 6 5 5 6 6 6 6 6 6 6 5 5 5 nan
nan 5 6 7 7 6 7 9 9 9 8 8 7 7 6 6 6 6 6 5 5 5 5 5 5 4 4 5 5 6 6 6 5 5 5 4 4 4 6 9 9 8 4 1 3 6 9 9 6 5 6 6 6 6 5 5 6 6 6 6 6 6 5 5 5 6 8 9 9 8 7 6 5 3 2 2 2 3 4 4 5 5 5 5 6 5 6 5 5 4 5 5 5 5 6 7 7 7 7 6 6 5 nan
nan 7 9 8 7 7 8 9 9 9 8 7 7 6 6 6 6 6 6 6 6 6 5 5 5 4 4 5 6 6 6 5 5 5 6 5 5 4 5 6 5 3 1 4 8 11 10 7 4 5 7 6 5 5 5 6 7 7 6 6 6 6 5 4 5 7 8 9 8 8 7 7 6 4 3 2 2 3 5 5 6 6 6 6 7 6 6 4 4 4 4 4 4 5 5 5 6 6 6 6 6 6 nan
nan 8 8 7 6 6 7 8 8 8 8 8 7 7 6 6 6 6 6 7 7 6 6 5 5 4 4 5 6 5 5 6 4 5 6 6 6 4 3 2 1 2 4 8 11 12 10 6 4 6 8 6 4 4 5 6 7 7 7 6 6 5 5 4 5 7 8 8 8 8 8 10 9 7 4 3 3 4 6 6 6 6 6 7 7 7 6 3 3 3 4 4 4 4 4 4 4 5 5 5 5 5 nan
nan 8 7 6 5 6 6 7 7 8 8 8 7 7 7 6 5 5 6 8 7 7 6 5 4 4 5 5 5 4 6 6 5 7 7 7 5 2 -1 -2 0 3 7 10 11 11 9 7 6 7 8 6 4 4 5 6 7 7 7 6 6 5 5 5 5 6 7 7 8 8 10 12 12 10 6 4 4 5 6 7 7 7 7 7 8 7 6 4 3 4 4 5 5 5 4 4 4 4 5 5 5 5 nan
nan 8 6 5 5 5 5 6 6 6 7 8 9 9 8 6 5 5 6 8 8 7 6 5 4 3 5 4 3 4 7 7 7 8 8 7 3 -0 -3 -2 1 5 8 10 11 10 9 8 7 7 8 7 5 4 4 6 7 7 7 6 6 5 4 5 5 6 7 6 7 7 9 11 12 10 7 5 5 6 7 6 6 6 6 7 8 8 6 4 4 4 5 6 6 5 5 4 5 5 5 5 5 5 nan
nan 8 6 5 5 5 5 5 5 5 6 7 9 10 8 5 4 4 6 7 7 7 6 5 3 1 1 2 3 5 7 7 6 7 8 6 3 0 -0 2 4 6 8 9 9 8 8 9 8 8 8 8 7 6 5 6 7 7 6 6 5 5 4 4 5 6 7 6 6 6 7 8 9 8 6 5 6 7 7 6 6 6 6 6 7 8 7 5 4 5 6 6 6 6 5 5 5 5 6 6 6 6 nan
nan 7 7 6 6 6 5 5 5 5 6 7 6 7 6 5 5 5 5 5 6 6 5 3 1 -0 -1 2 5 6 7 6 6 5 6 6 5 3 4 5 5 6 7 7 6 6 7 8 8 9 9 8 9 9 7 6 7 7 6 5 5 4 4 4 5 7 7 7 6 6 6 6 6 6 5 5 6 8 8 7 6 5 5 5 6 8 8 6 6 6 6 7 7 7 6 5 5 5 6 6 6 7 nan
nan 7 8 8 8 7 7 7 6 6 7 7 4 4 5 6 6 6 5 5 6 6 3 0 0 1 2 5 5 5 5 6 6 5 5 6 6 6 6 6 6 6 6 6 6 6 7 7 8 8 8 9 9 10 10 8 8 7 6 5 4 4 3 4 5 6 7 8 7 6 5 5 5 5 5 6 7 8 8 8 6 5 4 4 5 7 8 8 7 6 6 7 8 8 7 6 5 5 5 6 6 6 nan
nan 7 8 7 7 7 8 8 8 9 10 7 2 3 5 7 8 7 4 5 7 8 2 -1 1 3 4 5 5 4 5 6 6 5 5 5 6 7 7 7 7 6 6 6 6 6 6 7 7 6 7 8 8 9 11 11 9 9 8 6 5 4 3 3 3 4 6 8 8 8 6 5 5 5 6 6 6 7 9 9 7 6 5 4 5 5 6 7 7 6 6 7 7 8 8 6 5 5 5 5 5 5 nan
nan 7 7 7 7 7 7 7 8 10 13 9 3 3 5 8 9 7 5 6 8 8 5 1 1 3 6 6 5 5 7 8 7 5 5 5 6 7 8 8 7 6 7 6 6 6 6 7 7 7 7 7 7 8 10 11 10 9 9 8 7 6 4 3 3 3 4 6 8 9 8 7 6 6 6 6 6 7 8 9 8 6 5 4 4 4 5 6 6 5 5 5 5 7 7 7 6 5 5 5 5 5 nan
nan 8 7 9 9 8 7 6 6 8 13 11 6 6 7 8 8 7 5 6 7 7 7 5 4 5 7 6 5 5 7 8 7 6 6 6 6 6 7 8 6 6 7 7 6 6 6 6 7 7 7 7 7 8 9 10 10 10 10 10 9 8 6 4 3 2 2 3 5 7 8 8 8 7 6 6 6 6 7 8 7 6 5 5 4 4 5 5 5 5 4 4 4 5 5 5 6 5 5 5 5 5 nan
nan 9 7 8 10 10 9 8 7 6 10 11 9 9 9 8 6 7 6 6 7 8 7 7 7 7 8 7 4 4 5 6 7 6 7 7 7 6 6 6 6 6 6 6 6 6 7 6 6 7 7 7 7 8 8 8 9 9 9 10 10 10 8 6 4 3 2 2 2 4 6 9 9 8 7 6 6 5 6 6 6 6 5 5 5 5 5 5 5 4 4 4 4 4 4 4 5 5 5 5 4 4 nan
nan 10 8 6 7 9 10 10 9 8 8 11 11 10 9 7 5 6 6 6 8 9 8 8 7 6 7 8 6 3 3 5 6 6 6 6 6 6 6 6 5 6 6 5 6 7 7 7 7 6 6 7 7 7 9 9 8 8 8 9 10 10 9 8 6 5 3 2 2 2 3 6 9 9 8 7 7 6 6 5 5 5 5 5 5 5 5 5 5 5 5 5 5 5 4 4 4 4 4 4 4 4 nan
nan 9 9 7 6 5 7 9 10 9 9 11 11 11 9 6 5 6 6 6 8 9 8 6 5 4 5 7 7 5 4 5 6 6 5 5 6 7 6 6 5 6 5 4 6 6 7 7 7 7 6 6 6 7 8 10 10 8 8 8 9 9 10 9 8 7 6 4 3 2 2 4 5 7 8 9 8 8 7 5 5 5 5 5 5 5 5 5 5 5 5 5 6 6 5 5 5 5 5 5 5 4 nan
nan 7 8 8 7 5 3 4 6 8 9 9 9 10 9 8 7 6 6 6 7 8 8 6 4 4 5 5 6 6 5 6 7 6 3 3 5 7 6 5 5 4 5 5 6 6 6 7 7 7 6 6 5 6 7 10 11 9 8 7 7 8 9 9 9 9 8 6 5 4 3 3 3 4 6 8 10 10 9 6 5 5 5 5 5 5 5 5 5 5 5 6 6 6 6 6 6 6 5 5 5 5 nan
nan 7 8 7 8 8 6 3 4 5 8 8 8 7 8 9 8 7 7 6 6 8 8 7 6 6 5 5 5 5 5 5 6 7 5 3 4 5 6 5 4 4 4 5 6 6 7 6 6 5 6 7 6 6 6 9 11 11 9 7 7 7 7 8 8 9 9 8 7 7 5 4 3 3 4 6 8 10 10 9 7 6 5 5 5 5 5 5 5 5 5 5 6 6 6 6 6 6 6 6 5 5 nan
nan 8 8 8 8 9 10 8 5 4 7 9 10 7 8 10 9 8 7 7 6 7 6 6 7 7 6 6 6 6 6 6 6 7 7 5 4 4 4 5 5 4 4 5 6 6 8 8 6 5 5 7 7 7 7 8 11 12 11 8 7 7 6 7 7 8 8 9 9 9 8 7 6 4 3 4 5 8 10 10 8 7 6 5 5 5 5 5 5 5 5 5 6 6 6 6 6 6 6 6 6 5 nan
nan 7 8 9 9 8 8 10 8 6 6 9 11 11 11 12 11 9 7 7 6 6 6 5 6 6 7 7 6 7 7 7 6 7 6 6 6 6 6 5 5 5 6 5 6 6 7 8 7 5 5 5 5 6 7 7 9 12 14 11 9 7 7 6 7 7 7 8 9 9 10 9 8 6 5 4 4 4 7 9 9 10 8 6 5 5 5 5 5 5 5 5 5 6 6 6 6 6 6 6 6 6 nan
nan 6 6 7 9 9 9 9 10 8 7 8 10 11 12 12 11 10 10 9 8 6 6 7 7 7 7 7 7 6 7 7 6 6 6 5 7 8 9 7 6 6 6 6 6 6 6 7 7 6 6 6 4 4 5 6 8 10 14 15 13 10 8 7 7 6 7 7 8 9 10 10 9 8 7 5 4 4 5 6 8 9 9 8 7 7 6 6 5 5 5 5 5 6 6 6 6 6 6 6 6 6 nan
nan 8 7 7 7 8 8 8 8 9 9 9 9 10 11 11 9 9 10 10 9 7 7 9 8 7 6 6 6 6 7 8 7 6 5 5 6 8 9 9 8 8 7 6 5 5 5 6 7 7 6 6 5 4 4 6 7 8 10 13 14 13 10 8 7 7 7 8 8 8 9 10 10 9 8 7 6 5 4 4 5 7 8 8 9 8 8 8 7 6 5 5 5 5 5 6 6 6 6 6 6 6 nan
nan 11 10 8 8 8 8 6 6 7 8 8 9 10 10 9 7 7 6 5 4 4 6 10 8 6 4 5 6 6 7 8 7 7 6 5 5 6 7 7 8 9 9 8 7 7 6 6 7 8 7 6 6 5 5 6 6 7 9 11 12 14 13 10 10 10 9 9 8 8 8 9 9 9 9 8 7 6 5 5 4 4 6 8 9 9 9 9 8 8 7 6 6 5 6 6 6 6 6 6 6 6 nan
nan 10 9 9 10 11 10 9 9 8 6 6 8 11 10 7 5 5 3 2 3 3 5 8 9 7 6 6 7 7 7 7 8 8 8 7 6 7 7 7 7 7 8 9 10 10 8 7 6 7 8 8 8 7 6 6 6 6 8 10 11 12 14 14 13 13 12 10 10 9 9 9 9 9 9 8 8 7 6 5 4 4 5 6 7 8 9 9 9 9 9 8 7 7 7 7 7 7 7 6 6 6 nan
nan 8 8 8 9 10 9 10 11 12 8 4 4 8 9 6 5 4 3 5 7 6 6 7 9 9 7 7 8 8 7 6 6 7 8 8 8 8 8 8 7 7 6 8 9 10 9 7 7 7 8 9 8 8 8 7 7 6 7 8 9 10 11 12 13 14 15 13 12 10 9 9 9 9 9 9 8 8 7 6 5 5 5 5 5 6 7 8 8 9 9 9 9 8 9 9 9 9 7 6 6 6 nan
nan 9 10 9 8 7 7 6 7 9 9 5 4 5 7 7 6 6 6 8 10 9 6 6 8 9 7 6 7 8 7 6 6 6 7 7 7 7 7 8 8 7 7 7 7 8 8 8 8 8 8 8 8 8 8 8 7 6 6 6 7 7 8 8 9 11 14 15 15 13 10 10 9 9 9 9 8 8 8 7 6 6 5 5 5 5 5 5 6 7 7 8 8 9 10 11 11 10 9 7 6 6 nan
nan 8 9 9 7 6 6 4 3 4 7 7 5 4 5 7 8 10 12 12 12 11 7 6 7 9 8 7 8 9 9 7 7 7 7 7 7 6 7 8 8 8 8 7 7 8 8 9 8 8 8 8 8 9 8 7 7 6 5 6 6 6 6 7 7 8 9 13 15 15 13 11 10 9 9 8 8 8 8 8 7 7 6 5 5 4 4 4 5 4 5 6 6 7 8 9 10 11 10 8 7 7 nan
nan 8 7 7 7 7 7 5 5 6 9 8 6 5 4 6 9 11 13 15 15 13 9 6 6 7 8 8 7 8 9 10 9 8 8 8 7 7 8 8 7 7 7 8 8 8 9 9 8 8 8 9 9 9 7 6 6 6 6 5 5 5 5 6 7 6 6 8 11 15 16 13 11 10 9 9 8 8 8 8 8 8 8 7 6 5 5 4 4 4 4 4 5 5 6 6 7 8 9 9 8 8 nan
nan 9 8 7 7 8 10 11 11 11 12 12 9 8 6 6 8 9 11 11 12 15 14 9 7 7 10 10 8 8 9 10 11 9 8 7 6 6 7 7 7 7 7 7 7 7 8 9 10 10 10 9 9 8 6 6 6 6 6 5 5 4 4 5 5 5 6 6 8 11 15 16 13 12 10 9 9 9 8 9 9 10 9 9 8 7 6 5 5 5 4 4 4 4 4 4 5 6 6 7 8 8 nan
nan 10 9 8 9 11 15 15 12 11 12 13 11 12 10 7 7 7 7 6 7 11 14 12 10 8 9 10 10 9 8 8 10 10 8 7 6 6 6 6 7 7 8 8 7 7 8 9 10 11 11 11 9 7 6 6 7 6 6 6 7 6 6 5 5 6 5 6 7 8 12 16 15 13 12 11 10 9 9 9 10 10 10 9 8 8 7 6 6 6 5 5 5 5 4 4 4 4 5 5 6 6 nan
nan 9 9 9 9 11 14 14 11 9 9 9 10 12 13 10 7 6 6 6 4 6 10 11 9 7 6 8 10 11 9 7 8 9 9 8 7 6 5 6 7 7 9 8 7 7 7 8 9 9 10 10 9 8 8 7 7 7 7 9 10 11 9 7 5 5 5 5 5 7 9 13 15 15 14 13 12 11 10 10 10 9 9 9 8 8 7 7 7 7 7 6 6 6 5 5 5 5 5 5 5 5 nan
nan 8 8 8 7 8 10 12 11 10 9 8 8 9 11 10 9 8 8 8 7 7 9 9 7 4 3 5 8 12 11 9 8 9 9 8 8 7 6 6 8 8 9 8 8 8 7 8 8 8 8 8 9 10 10 9 8 8 8 9 10 12 11 8 6 5 5 5 6 6 7 9 12 15 16 15 14 14 12 12 11 10 9 8 8 8 8 8 8 8 8 8 7 7 7 6 6 6 6 6 5 5 nan
nan 8 8 7 6 5 7 10 11 11 10 10 8 7 8 9 9 10 10 10 10 8 7 7 6 3 3 4 7 9 11 11 11 11 10 9 9 9 8 7 9 9 9 8 8 9 8 8 8 8 8 7 8 9 11 11 11 10 9 7 8 10 10 9 8 7 7 7 7 7 7 6 7 10 13 15 16 17 16 15 13 12 10 10 9 8 8 9 9 9 9 9 8 8 8 8 7 7 7 7 7 6 nan
nan 7 7 7 7 7 7 9 10 11 10 10 9 8 8 9 10 10 10 11 10 7 5 5 7 8 8 7 5 6 8 9 10 10 10 10 9 9 8 8 9 9 9 9 9 9 10 9 9 9 8 7 8 8 10 11 12 11 10 9 8 9 9 9 9 8 8 8 8 7 8 7 5 5 8 11 13 15 17 17 16 15 14 12 11 10 9 10 10 10 9 9 9 8 8 8 8 8 8 8 8 8 nan
nan 6 6 7 7 7 8 9 9 9 9 9 9 9 9 10 10 10 10 10 10 10 9 8 10 11 13 10 6 4 5 6 6 6 7 7 7 7 7 8 9 9 9 9 9 10 10 10 9 9 9 8 8 8 9 10 10 10 10 11 10 9 9 9 9 9 9 8 7 6 7 8 7 6 6 8 8 9 13 16 17 17 16 15 14 13 11 11 10 10 10 9 8 8 8 8 8 9 9 9 9 9 nan
nan 9 9 7 6 6 8 8 8 8 8 9 9 9 8 8 9 9 8 8 10 12 13 13 12 10 10 9 7 7 7 6 5 4 4 5 5 5 6 7 8 9 9 9 9 9 9 9 9 9 10 9 9 9 9 9 9 9 8 10 10 10 9 8 9 8 8 6 6 6 5 6 9 9 7 8 8 8 10 13 16 18 19 17 17 16 14 12 11 11 10 9 8 8 7 8 8 8 9 9 9 10 nan
nan 10 11 10 8 6 6 7 7 7 7 8 9 10 10 9 8 7 6 5 7 10 12 13 13 11 9 8 8 9 9 9 9 7 5 6 7 7 6 7 8 8 9 9 9 9 8 10 10 9 8 9 9 9 9 9 8 8 8 8 9 10 10 10 10 10 9 7 7 8 7 6 8 9 9 9 8 8 9 9 11 14 17 18 18 19 18 14 13 12 12 10 9 8 7 8 8 8 8 9 9 10 nan
nan 9 9 10 11 9 7 7 6 6 7 9 9 10 11 10 9 9 9 7 5 6 9 12 13 12 9 7 7 9 11 12 11 10 8 9 9 10 8 8 8 8 8 10 10 11 11 11 10 8 6 8 8 9 9 9 8 7 8 8 8 10 11 13 13 12 11 11 10 10 9 8 8 9 9 9 9 8 8 8 8 9 11 16 18 20 22 21 18 15 14 12 11 9 9 8 8 8 8 9 9 10 nan
nan 8 8 9 10 10 10 9 6 7 8 9 9 8 9 9 10 12 15 14 9 5 4 8 10 11 10 8 8 10 12 12 10 7 8 12 12 11 10 7 7 8 9 10 11 12 13 11 11 10 7 7 7 8 8 9 9 8 8 8 8 8 10 12 12 12 12 13 13 12 11 9 8 7 8 7 6 6 6 6 6 7 8 11 13 14 16 21 22 21 17 14 12 11 11 10 9 8 8 8 8 9 nan
nan 8 8 9 9 9 11 10 8 7 8 8 8 7 7 7 8 10 15 18 15 11 7 5 8 10 12 11 10 11 11 10 8 6 8 12 12 11 10 9 7 8 10 10 10 10 11 12 14 15 14 9 7 7 8 9 10 10 8 8 8 8 9 9 9 10 11 11 12 13 13 11 9 7 6 6 4 3 4 3 4 6 8 8 9 9 10 12 15 19 19 16 14 12 12 12 10 9 8 8 8 8 nan
nan 6 5 6 7 8 9 10 10 8 7 7 8 7 7 8 7 7 8 12 14 15 15 11 8 9 11 11 10 11 10 9 7 5 7 10 10 9 8 9 9 9 9 9 9 10 11 13 15 19 20 16 13 9 8 8 9 10 9 8 9 9 9 8 9 9 9 10 10 11 12 11 11 10 9 7 7 6 5 4 3 4 6 8 9 9 10 11 12 14 15 16 16 14 12 12 11 10 9 8 7 8 nan
nan 6 5 4 5 7 8 9 10 10 8 8 9 10 10 9 6 5 5 6 8 9 12 14 11 8 8 9 9 10 11 9 7 4 5 7 7 6 6 7 9 9 8 8 8 10 11 12 12 14 16 17 16 15 12 10 9 10 11 10 9 9 9 9 9 9 9 9 10 10 10 10 10 10 10 10 10 10 9 7 5 3 4 6 8 8 8 10 13 13 14 15 16 16 14 11 10 10 9 8 8 7 nan
nan 10 10 8 8 9 10 10 10 10 10 9 9 10 12 10 6 6 8 7 6 4 5 10 11 9 8 9 9 9 11 11 8 7 6 5 5 4 6 8 9 8 7 7 8 9 9 8 9 11 10 11 14 16 17 15 12 10 10 10 9 8 9 9 9 9 9 9 10 10 10 10 10 10 10 10 10 9 8 8 8 8 6 7 8 8 8 9 10 10 12 15 17 17 15 12 11 10 10 9 8 8 nan
nan 14 14 13 11 10 10 10 10 10 10 8 8 8 10 11 13 12 9 8 7 6 5 8 10 8 7 8 9 8 9 9 8 8 8 7 6 4 4 6 7 7 8 9 9 9 9 8 8 10 9 7 9 12 13 13 12 11 10 10 10 9 9 9 9 9 9 9 9 9 10 10 9 10 10 10 9 8 8 10 11 11 11 11 10 10 10 9 9 9 10 13 18 21 18 16 14 12 11 10 10 9 nan
nan 14 13 13 11 9 7 8 9 9 8 7 6 6 7 11 14 16 13 10 9 9 7 6 8 8 6 6 8 8 8 8 9 8 9 9 8 6 3 3 4 5 7 8 9 10 10 8 7 8 9 6 7 8 8 9 10 11 11 11 11 10 9 8 7 7 7 7 7 8 8 8 8 8 9 8 9 10 10 11 12 13 13 13 13 12 11 11 12 12 13 13 14 15 16 17 16 16 15 14 13 12 nan
nan 9 10 12 11 9 6 6 7 7 7 7 5 5 6 8 10 13 16 15 13 14 10 3 5 7 7 6 7 8 9 8 8 9 9 9 10 9 6 2 2 3 5 7 8 9 9 8 7 6 7 8 9 8 7 8 9 10 10 9 9 9 9 7 5 5 6 6 6 6 8 8 8 8 9 10 11 11 11 13 15 15 16 17 17 16 13 14 15 16 15 13 10 8 12 19 21 22 21 20 18 16 nan
nan 5 7 11 12 11 8 6 6 6 7 7 6 6 5 6 8 10 14 15 15 16 10 4 5 7 8 8 6 7 9 9 8 8 8 9 11 13 11 7 5 3 4 5 6 7 6 6 6 6 7 8 8 8 6 7 8 8 8 8 7 7 7 6 6 5 6 6 6 6 7 8 9 10 11 12 12 12 12 14 16 17 19 20 19 16 15 15 16 16 13 8 6 7 12 20 24 26 26 24 23 21 nan
nan 4 6 10 13 11 10 8 7 6 7 8 7 7 7 8 9 10 12 13 12 11 7 6 6 6 9 9 6 6 9 10 8 7 7 8 11 14 14 11 10 8 7 6 6 6 5 5 5 6 7 8 7 7 6 7 7 7 7 8 8 8 7 8 8 8 8 8 9 9 8 8 9 11 12 13 13 14 12 12 14 15 16 17 16 14 12 13 14 11 8 2 -1 7 16 18 22 24 25 25 24 23 nan
nan nan nan nan nan nan nan nan nan nan nan nan nan nan nan nan nan nan nan nan nan nan nan nan nan nan nan nan nan nan nan nan nan nan nan nan nan nan nan nan nan nan nan nan nan nan nan nan nan nan nan nan nan nan nan nan nan nan nan nan nan nan nan nan nan nan nan nan nan nan nan nan nan nan nan nan nan nan nan nan nan nan nan nan nan nan nan nan nan nan nan nan nan nan nan nan nan nan nan nan nan nan nan
CAPE
1952 1843 1551 1347 1143 1143 1084 1000 920 920 797 723 653 653 699 746 746 710 602 527 527 418 321 239 191 191 147 107 88 88 59 51 46 46 52 45 45 39 33 24 24 nan nan nan nan nan nan nan nan nan nan nan nan nan nan nan nan 2 3 4 4 2 7 15 13 13 13 5 nan nan nan nan nan nan nan 1 1 6 32 223 223 254 221 255 237 237 216 178 149 149 168 114 67 67 53 27 27 5 1 nan nan nan nan
1819 1644 1426 1231 1028 1028 1065 935 811 811 733 625 631 631 716 763 763 652 582 509 509 404 308 225 156 156 116 81 65 65 51 32 38 38 25 21 21 25 20 3 3 nan nan nan nan nan nan nan nan nan nan nan nan nan nan nan nan nan nan 3 3 4 10 76 32 32 8 4 nan nan nan nan nan nan nan 7 7 52 60 232 232 262 230 216 267 267 184 113 169 169 308 142 115 115 96 64 64 26 4 nan nan nan nan
1684 1539 1348 1154 1006 1006 1001 871 707 707 633 604 609 609 693 702 702 631 563 459 459 392 270 192 128 128 90 58 45 45 22 25 21 21 13 11 11 10 7 nan nan nan nan nan nan nan nan nan nan nan nan nan nan nan nan nan nan nan nan 6 6 3 27 91 29 29 8 1 nan nan nan nan nan nan 7 48 48 119 130 275 275 276 235 203 278 278 175 156 306 306 458 189 137 137 116 83 83 50 9 0 0 nan nan
1604 1517 1322 1130 1074 1074 982 808 684 684 575 581 660 660 669 683 683 614 510 444 444 352 263 164 105 105 56 29 9 9 9 5 6 6 9 9 9 8 1 nan nan nan nan nan nan nan nan nan nan nan nan nan nan nan nan nan nan nan nan 2 2 9 21 118 25 25 4 nan nan nan nan nan nan nan 8 36 36 160 258 350 350 349 295 233 284 284 192 380 562 562 467 216 144 144 106 87 87 56 29 4 4 1 nan
1583 1476 1289 1155 1051 1051 958 783 661 661 589 593 673 673 647 590 590 528 426 369 369 286 207 121 69 69 29 9 nan nan 0 2 4 4 7 9 9 4 nan nan nan nan nan nan nan nan nan nan nan nan nan nan nan nan nan nan nan 0 nan nan nan 9 42 99 21 21 4 nan nan nan nan nan 0 0 7 7 7 36 421 456 456 454 365 294 380 380 298 493 640 640 419 224 120 120 98 78 78 51 36 14 14 4 nan
1719 1497 1253 1165 1023 1023 889 762 643 643 606 644 611 611 552 502 502 414 347 298 298 225 157 82 28 28 3 nan nan nan 0 1 3 3 7 7 7 1 nan nan nan nan nan nan nan nan nan nan nan nan nan nan nan nan nan nan nan nan nan 0 0 9 36 56 20 20 2 nan nan nan nan nan nan nan 7 6 6 5 399 500 500 534 408 310 457 457 432 519 513 513 376 174 100 100 80 50 50 28 32 12 12 5 1
1751 1532 1274 1085 954 954 872 708 669 669 630 628 591 591 498 450 450 364 273 232 232 169 78 36 3 3 nan nan nan nan 0 1 2 2 5 4 4 nan nan nan nan nan nan nan nan nan nan nan nan nan nan nan nan nan nan nan nan nan nan 1 1 18 31 24 16 16 2 nan nan nan nan nan nan nan 12 30 30 6 124 417 417 552 422 351 475 475 449 458 404 404 286 132 83 83 53 27 27 10 11 24 24 7 3
1727 1476 1190 1041 948 948 862 777 696 696 618 616 541 541 481 367 367 287 232 172 172 102 43 1 nan nan nan nan nan nan nan 0 2 2 4 1 1 nan nan nan nan nan nan nan nan nan nan nan nan nan nan nan nan nan nan nan nan 1 nan 2 2 14 17 21 19 19 8 3 3 3 1 nan nan nan 12 46 46 19 34 219 219 352 347 308 317 317 322 308 270 270 172 95 54 54 20 3 3 2 3 14 14 8 4
1654 1362 1090 909 986 986 893 847 761 761 680 602 530 530 436 321 321 244 172 103 103 48 2 nan nan nan nan nan nan nan nan 0 1 1 2 nan nan nan nan nan nan nan nan nan nan nan nan nan nan nan nan nan nan nan nan 2 2 3 2 3 3 11 15 24 23 23 20 11 6 6 1 0 1 1 6 28 28 25 11 68 68 167 257 264 236 236 194 186 140 140 95 77 31 31 7 1 1 0 1 3 3 10 4
1534 1196 933 892 974 974 964 957 825 825 741 623 516 516 393 282 282 185 103 49 49 11 nan nan nan nan nan nan nan nan nan 0 1 1 1 nan nan nan nan nan nan nan nan nan nan nan nan nan nan nan nan nan nan nan nan 6 6 6 5 4 4 14 18 29 26 26 26 16 6 6 1 3 5 5 2 5 5 7 4 17 17 58 101 162 216 216 167 104 71 71 56 50 22 22 6 1 1 nan 0 2 2 4 8
1416 1084 907 912 998 998 1035 983 936 936 843 645 503 503 382 274 274 155 96 30 30 2 nan nan nan nan nan nan nan nan 0 1 2 2 0 nan nan nan nan nan nan nan nan nan nan nan nan nan nan nan nan nan nan nan nan 6 6 6 4 4 4 13 20 31 29 29 23 17 6 6 0 4 10 10 2 1 1 0 0 2 2 13 46 70 107 107 108 101 68 68 51 45 25 25 7 2 2 nan nan 1 1 3 5
1347 1109 970 972 1015 1015 1058 1009 958 958 869 706 521 521 370 264 264 146 73 24 24 4 nan nan nan nan nan nan 0 0 1 2 3 3 0 nan nan nan nan nan nan nan nan nan nan nan nan nan nan nan nan nan nan nan nan 2 2 2 1 2 2 12 24 28 30 30 19 15 6 6 nan 1 13 13 3 nan nan nan nan nan nan 1 12 22 39 39 59 71 68 68 60 53 30 30 14 4 4 2 1 2 2 3 2
1286 1135 950 906 1077 1077 1033 1030 984 984 894 728 573 573 385 249 249 136 67 28 28 12 2 nan nan nan nan nan 0 0 2 2 3 3 nan nan nan nan nan nan nan nan nan nan nan nan nan nan nan nan nan nan nan nan nan 1 1 nan nan 1 1 12 26 34 28 28 21 13 4 4 nan 0 14 14 9 0 0 nan nan nan nan nan 1 3 18 18 19 38 46 46 49 52 47 47 35 24 24 15 6 4 4 4 2
1152 1132 816 729 927 927 924 964 1003 1003 912 787 632 632 430 288 288 167 107 59 59 60 34 8 nan nan nan nan 0 0 2 3 3 3 nan nan nan nan nan nan nan nan nan nan nan nan nan nan nan nan nan nan nan nan nan nan nan nan nan 0 0 12 28 36 21 21 16 9 2 2 nan 0 14 14 9 0 0 nan nan nan nan nan nan 2 7 7 8 11 20 20 22 24 28 28 41 38 38 34 35 23 23 10 6
850 836 500 579 787 787 820 899 981 981 934 848 692 692 514 360 360 229 139 102 102 107 109 73 10 10 nan nan 2 2 6 6 4 4 nan nan nan nan nan nan nan nan nan nan nan nan nan nan nan nan nan nan nan nan nan nan nan nan nan 1 1 13 28 33 17 17 11 4 nan nan nan nan 9 9 5 nan nan nan nan nan nan nan nan 2 10 10 10 10 9 9 7 6 11 11 20 32 32 37 48 42 42 39 29
437 224 164 513 624 624 723 837 918 918 915 830 713 713 569 439 439 296 222 180 180 187 167 144 66 66 13 8 13 13 12 35 8 8 1 nan nan nan nan nan nan nan nan nan nan nan nan nan nan nan nan nan nan nan nan nan nan nan nan 3 3 18 33 28 16 16 7 1 nan nan nan nan 3 3 0 nan nan nan nan nan nan nan nan 0 13 13 11 13 12 12 10 7 6 6 11 14 14 30 34 45 45 50 46
8 nan nan 477 550 550 641 781 859 859 898 814 697 697 589 488 488 395 339 265 265 247 226 180 156 156 136 82 41 41 5 7 52 52 9 1 1 nan nan nan nan nan nan nan nan nan nan nan nan nan nan nan nan nan nan nan nan nan nan 6 6 21 31 28 14 14 3 nan nan nan 3 4 2 2 0 nan nan nan nan nan nan nan nan nan 11 11 13 10 10 10 11 8 4 4 6 8 8 14 22 32 32 35 38
4 nan 340 382 483 483 569 698 805 805 844 801 685 685 610 537 537 471 410 383 383 307 259 213 212 212 261 131 5 5 14 5 50 50 9 2 2 0 1 1 1 nan nan nan nan nan nan nan nan nan nan nan nan nan nan nan nan nan nan 7 7 22 35 26 12 12 1 nan 2 2 9 15 10 10 6 1 1 nan nan nan nan nan nan nan 8 8 12 8 6 6 6 8 6 6 4 2 2 3 13 16 16 18 19
47 134 303 347 449 449 532 622 721 721 795 755 676 676 632 589 589 488 426 454 454 370 291 268 270 270 298 100 5 5 7 13 21 21 15 2 2 0 0 0 0 nan nan nan nan nan nan nan nan nan nan nan nan nan nan nan nan nan nan 7 7 22 41 28 14 14 2 nan 1 1 11 22 20 20 10 6 6 1 0 nan nan nan nan nan 6 6 12 5 1 1 1 3 3 3 2 0 0 1 5 12 12 10 10
110 540 417 335 303 303 323 427 513 513 609 672 568 568 688 639 639 471 352 375 375 371 341 339 171 171 175 nan nan nan nan 0 nan nan nan 1 1 1 1 0 0 nan nan 0 nan nan nan nan nan nan nan nan nan nan nan nan nan nan 0 8 8 24 51 52 24 24 16 5 1 1 nan 0 2 2 1 2 2 13 14 1 1 nan nan nan 2 2 35 22 4 4 1 3 11 11 6 3 3 4 8 7 7 11 13
1043 1246 896 577 398 398 393 504 598 598 667 632 530 530 582 390 390 468 297 370 370 392 362 281 233 233 143 nan nan nan nan nan nan nan nan 0 0 1 0 0 0 nan nan 0 nan nan nan nan nan nan nan nan nan nan nan nan nan nan 0 7 7 22 62 80 40 40 25 13 4 4 1 0 nan nan nan 0 0 15 23 8 8 nan nan nan nan nan 28 40 20 20 8 13 30 30 29 18 18 9 12 11 11 16 20
1142 1172 995 875 760 760 685 616 624 624 761 619 716 716 672 466 466 350 268 419 419 415 357 329 300 300 61 nan nan nan nan nan nan nan nan nan nan 0 0 0 0 nan nan nan nan nan nan nan nan nan nan nan nan nan nan nan nan nan 0 5 5 19 58 109 79 79 51 23 12 12 6 3 2 2 nan nan nan 9 44 15 15 1 nan nan nan nan 16 57 47 47 30 36 58 58 59 32 32 19 10 14 14 22 27
855 1119 981 980 861 861 856 606 578 578 749 419 769 769 688 611 611 480 478 438 438 405 376 348 196 196 45 4 nan nan nan nan nan nan nan nan nan nan 0 0 0 nan nan nan nan nan nan nan nan nan nan nan nan nan nan nan nan nan nan 2 2 16 53 118 112 112 81 55 31 31 15 8 4 4 0 0 0 0 30 29 29 5 nan nan nan nan 2 27 49 49 50 42 76 76 77 62 62 40 26 17 17 18 19
645 797 1067 1097 973 973 1003 735 732 732 699 694 649 649 567 559 559 523 434 371 371 366 391 309 167 167 32 13 2 2 nan nan nan nan nan nan nan nan nan nan nan nan nan nan nan nan nan nan nan nan nan nan nan nan nan nan nan nan nan nan nan 8 40 93 157 157 143 102 57 57 45 32 16 16 3 0 0 0 6 33 33 19 nan nan nan nan nan 10 25 25 25 29 59 59 78 80 80 65 43 22 22 23 18
956 852 1053 1141 1086 1086 1034 870 824 824 747 782 599 599 516 503 503 505 387 282 282 279 300 251 120 120 43 11 nan nan nan nan nan nan nan nan nan nan nan nan nan nan nan nan nan nan nan nan nan nan nan nan nan nan nan nan nan nan nan nan nan 1 28 86 164 164 175 180 143 143 107 94 62 62 15 2 2 2 2 16 16 21 9 0 nan nan nan nan 5 5 10 14 18 18 35 65 65 69 72 36 36 29 23
1142 1209 1291 1221 1031 1031 1016 887 920 920 834 835 611 611 503 488 488 428 375 247 247 247 220 219 114 114 20 10 nan nan nan nan nan nan nan nan nan nan nan nan nan nan nan nan nan nan nan nan nan nan nan nan nan nan nan nan nan nan nan nan nan nan 12 51 135 135 180 233 236 236 219 179 160 160 86 15 15 4 3 12 12 26 24 15 1 1 nan nan 0 0 5 6 9 9 11 35 35 54 74 50 50 38 30
1053 1210 1385 1327 1186 1186 888 913 941 941 933 781 664 664 487 359 359 308 313 217 217 150 212 188 60 60 14 8 0 0 nan nan nan nan nan nan nan nan nan nan nan nan nan nan nan nan nan nan nan nan nan nan nan nan nan nan nan nan nan nan nan nan 2 23 73 73 147 235 266 266 296 278 233 233 194 97 97 29 13 18 18 22 40 39 27 27 11 3 0 0 4 4 9 9 9 9 9 24 42 67 67 55 58
637 768 1032 1404 1485 1485 1167 945 890 890 843 732 615 615 470 344 344 230 229 187 187 143 185 122 34 34 11 8 2 2 nan nan nan nan nan nan nan nan nan nan nan nan nan nan nan nan nan nan nan nan nan nan nan nan nan nan nan nan nan nan nan nan nan 8 29 29 116 178 271 271 329 338 314 314 291 228 228 144 89 46 46 60 60 74 74 74 59 32 13 13 9 10 15 15 15 15 15 16 28 34 34 57 79
594 373 510 1184 1389 1389 1295 1366 851 851 726 719 532 532 430 390 390 242 242 199 199 155 99 76 24 24 10 7 3 3 nan nan nan nan nan nan nan nan nan nan nan nan nan nan nan nan nan nan nan nan nan nan nan nan nan nan nan nan nan nan nan nan nan nan 12 12 54 163 232 232 309 372 405 405 355 333 333 285 241 176 176 138 120 140 161 161 141 122 67 67 50 15 25 25 18 19 19 19 20 52 52 76 119
805 416 322 672 1260 1260 1129 1154 1021 1021 729 563 499 499 530 357 357 305 213 210 210 94 92 54 25 25 13 8 5 5 nan nan nan nan nan nan nan nan nan nan nan nan nan nan nan nan nan nan nan nan nan nan nan nan nan nan nan nan nan nan nan nan nan nan nan nan 19 91 194 194 292 378 445 445 425 402 402 404 380 329 329 257 238 217 218 218 220 219 174 174 132 57 43 43 32 34 34 25 39 58 58 99 143
959 786 464 429 779 779 1138 1120 1142 1142 810 433 353 353 595 376 376 310 202 199 199 140 104 37 31 31 18 10 8 8 1 nan nan nan nan nan nan 0 0 nan nan nan nan nan nan nan nan nan nan nan nan nan nan nan nan nan nan nan nan nan nan nan nan nan nan nan 1 16 119 119 254 387 453 453 494 473 473 450 483 549 549 461 380 356 333 333 335 335 312 312 236 143 84 84 69 55 55 59 62 83 83 126 171
992 1017 701 552 444 444 756 1292 1067 1067 1093 832 462 462 496 378 378 305 189 167 167 171 134 86 38 38 24 10 7 7 3 nan nan nan nan nan nan 0 nan nan nan nan nan nan nan nan nan nan nan nan nan nan nan nan nan nan nan nan nan nan nan nan nan nan nan nan nan nan 18 18 152 295 462 462 501 511 511 519 528 600 600 607 613 585 528 528 496 464 437 437 408 299 200 200 136 118 118 122 125 129 129 177 205
1105 1054 923 683 567 567 652 808 1187 1187 1086 947 850 850 593 480 480 362 198 135 135 181 145 110 52 52 33 12 5 5 1 3 4 4 6 2 2 0 0 nan nan nan nan nan nan nan nan nan nan nan nan nan nan nan nan nan nan nan nan nan nan nan nan nan nan nan nan nan nan nan 33 211 391 391 479 547 547 591 603 615 615 659 698 701 672 672 635 599 595 595 534 448 367 367 290 243 243 198 202 230 230 234 289
1182 1082 990 901 696 696 693 952 1025 1025 990 817 693 693 533 483 483 372 232 124 124 146 188 125 74 74 38 12 9 9 2 1 9 9 16 10 10 3 0 0 0 0 nan nan nan nan nan nan nan nan nan nan nan nan nan nan nan nan nan nan nan nan nan nan nan nan nan nan nan nan 0 97 274 274 437 530 530 602 645 659 659 671 714 784 785 785 780 775 738 738 706 645 526 526 442 388 388 335 338 314 314 319 352
1215 1197 1140 1089 1029 1029 788 859 1050 1050 887 762 598 598 444 431 431 273 174 111 111 71 96 97 68 68 24 13 10 10 6 1 8 8 22 20 20 8 0 0 0 nan nan nan nan nan nan nan nan nan nan nan nan nan nan nan nan nan nan nan nan nan nan nan nan nan nan nan nan nan nan 15 168 168 369 488 488 585 657 670 670 683 725 765 801 801 831 827 857 857 893 827 730 730 636 545 545 487 431 436 436 413 449
882 1141 1195 1078 1180 1180 967 762 758 758 823 669 477 477 372 274 274 172 123 28 28 19 62 90 75 75 22 13 14 14 14 6 7 7 19 23 23 10 0 0 0 nan nan nan nan nan nan nan nan nan nan nan nan nan nan nan nan nan nan nan nan nan nan nan nan nan nan nan nan nan nan 0 55 55 229 418 418 542 610 616 616 658 702 744 781 781 848 882 914 914 948 984 915 915 813 715 715 653 564 540 540 515 522
795 700 873 891 882 882 874 864 744 744 878 726 433 433 305 197 197 166 77 11 11 20 52 100 67 67 23 15 22 22 21 10 7 7 13 17 17 5 0 0 0 nan nan nan nan nan nan nan nan nan nan nan nan nan nan nan nan nan nan nan nan nan nan nan nan nan nan nan nan nan nan nan 14 14 115 298 298 442 536 570 570 605 612 686 758 758 794 863 900 900 934 1006 1031 1031 1004 908 908 808 746 687 687 661 667
943 843 717 745 719 719 605 667 762 762 784 741 534 534 328 193 193 137 27 8 8 27 73 102 73 73 37 30 28 28 32 16 17 17 14 14 14 4 0 nan nan nan nan nan nan nan nan nan nan nan nan nan nan nan nan nan nan nan nan nan nan nan nan nan nan nan nan nan nan nan nan nan 1 1 22 145 145 292 408 470 470 532 565 597 664 664 734 805 845 845 882 956 1031 1031 1021 1062 1062 1009 945 883 883 854 789
1063 1002 985 935 678 678 492 483 347 347 342 476 577 577 432 264 264 180 50 35 35 38 68 101 79 79 45 35 32 32 41 27 24 24 18 13 13 8 3 nan nan nan nan nan nan nan nan nan nan nan nan nan nan nan nan nan nan nan nan nan nan nan nan nan nan nan nan nan nan nan nan nan nan nan 6 27 27 135 258 372 372 433 522 553 612 612 645 680 749 749 786 861 906 906 987 1054 1054 1126 1183 1168 1168 1056 990
946 926 902 764 635 635 587 384 239 239 204 221 452 452 418 362 362 237 139 130 130 94 123 127 56 56 42 34 33 33 38 28 23 23 15 14 14 10 3 nan nan nan nan nan nan nan nan nan nan nan nan nan nan nan nan nan nan nan nan nan nan nan nan nan nan nan nan nan nan nan nan nan nan nan nan 6 6 25 106 225 225 336 423 510 570 570 599 599 599 599 663 732 777 777 856 969 969 1118 1230 1289 1289 1256 1159
759 776 754 775 792 792 552 266 322 322 273 137 290 290 264 311 311 309 249 224 224 156 146 73 51 51 45 34 38 38 25 20 21 21 16 9 9 7 2 nan nan nan nan nan nan nan nan nan nan nan nan nan nan nan nan nan nan nan nan nan nan nan nan nan nan nan nan nan nan nan nan nan nan nan nan nan nan 2 17 66 66 169 275 412 498 498 527 555 555 555 586 588 625 625 665 738 738 846 1066 1217 1217 1349 1240
522 707 727 827 1001 1001 737 509 514 514 376 250 235 235 243 286 286 346 308 259 259 235 111 72 53 53 49 39 34 34 22 5 15 15 14 7 7 4 1 nan nan nan nan nan nan nan nan nan nan nan nan nan nan nan nan nan nan nan nan nan nan nan nan nan nan nan nan nan nan nan nan nan nan nan nan nan nan nan nan 6 6 25 82 214 318 318 427 483 542 542 544 577 610 610 613 648 648 686 826 976 976 1089 1177
151 210 283 390 301 301 270 171 142 142 118 60 196 196 274 255 255 185 279 233 233 81 99 50 40 40 32 38 27 27 17 6 nan nan 2 2 2 nan nan nan nan nan nan nan nan nan nan nan nan nan nan nan nan nan nan nan nan nan nan nan nan nan nan nan nan nan nan nan nan nan nan nan nan nan nan nan nan nan nan nan nan nan nan nan 35 35 90 196 297 297 408 467 527 527 587 616 616 646 676 712 712 753 834
55 55 79 71 93 93 63 35 28 28 37 32 47 47 108 109 109 113 114 184 184 120 159 41 17 17 16 41 20 20 18 4 0 0 nan 0 0 0 nan nan nan nan nan nan nan nan nan nan nan nan nan nan nan nan nan nan nan nan nan nan nan nan nan nan nan nan nan nan nan nan nan nan nan nan nan nan nan nan nan nan nan nan nan nan 0 0 28 67 147 147 239 345 429 429 486 543 543 601 630 661 661 695 701
47 39 27 34 39 39 32 44 36 36 45 37 62 62 39 71 71 54 60 38 38 126 124 39 18 18 5 22 11 11 8 0 nan nan nan nan nan nan nan nan nan nan nan nan nan nan nan nan nan nan nan nan nan nan nan nan nan nan nan nan nan nan nan nan nan nan nan nan nan nan nan nan nan nan nan nan nan nan nan nan nan nan nan nan nan nan nan 16 44 44 123 209 283 283 363 446 446 502 558 618 618 650 651
38 39 33 29 43 43 37 43 50 50 59 69 103 103 58 46 46 42 44 35 35 34 34 28 10 10 19 24 19 19 3 2 0 0 nan nan nan nan nan nan nan nan nan nan nan nan nan nan nan nan nan nan nan nan nan nan nan nan nan nan nan nan nan nan nan nan nan nan nan nan nan nan nan nan nan nan nan nan nan nan nan nan nan nan nan nan nan nan 7 7 43 93 160 160 226 300 300 380 464 519 519 609 579
44 44 61 64 78 78 70 54 70 70 79 87 70 70 56 68 68 61 38 26 26 30 15 24 7 7 31 33 29 29 5 3 3 3 3 nan nan nan nan nan nan nan nan nan nan nan nan nan nan nan nan nan nan nan nan nan nan nan nan nan nan nan nan nan nan nan nan nan nan nan nan nan nan nan nan nan nan nan nan nan nan nan nan nan nan nan nan nan nan nan 0 24 59 59 108 177 177 242 321 426 426 542 542
33 31 33 51 85 85 126 122 87 87 99 91 87 87 80 67 67 60 34 19 19 16 14 11 25 25 49 46 23 23 8 8 7 7 7 12 12 2 nan nan nan nan nan nan nan nan nan nan nan nan nan nan nan nan nan nan nan nan nan nan nan nan nan nan nan nan nan nan nan nan nan nan nan nan nan nan nan nan nan nan nan nan nan nan nan nan nan nan nan nan nan 0 13 13 39 79 79 137 213 310 310 420 477
22 20 19 24 57 57 138 169 155 155 140 100 92 92 111 88 88 59 29 22 22 31 31 21 24 24 67 48 34 34 10 2 7 7 11 12 12 5 nan nan nan 6 nan nan nan nan nan nan nan nan nan nan nan nan nan nan nan nan nan nan nan nan nan nan nan nan nan nan nan nan nan nan nan nan nan nan nan nan nan nan nan nan nan nan nan nan nan nan nan nan nan nan nan nan 6 35 35 64 131 204 204 303 357
45 51 41 50 86 86 120 164 188 188 158 124 141 141 104 82 82 51 25 33 33 44 41 28 27 27 38 44 6 6 nan nan 0 0 3 16 16 9 11 24 24 13 1 0 nan nan nan nan nan nan nan nan nan nan nan nan nan nan nan nan nan nan nan nan nan nan nan nan nan nan nan nan nan nan nan nan nan nan nan nan nan nan nan nan nan nan nan nan nan nan nan nan nan nan nan 3 3 25 60 126 126 175 244
48 74 83 110 100 100 105 138 133 133 131 96 128 128 97 73 73 57 97 81 81 63 49 27 6 6 12 22 nan nan nan 0 nan nan 3 4 4 3 15 20 20 14 6 14 7 7 nan nan nan nan nan nan nan nan nan nan nan nan nan nan nan nan nan nan nan nan nan nan nan nan nan nan nan nan nan nan nan nan nan nan nan nan nan nan nan nan nan nan nan nan nan nan nan nan nan nan nan 5 24 57 57 107 168
45 71 104 117 123 123 102 88 92 92 95 100 111 111 94 85 85 92 123 137 137 129 75 29 5 5 1 1 0 0 1 1 0 0 nan nan nan 2 21 19 19 20 15 12 20 20 nan nan 0 0 nan nan nan nan nan nan nan nan nan nan nan nan nan nan nan nan nan nan nan nan nan nan nan nan nan nan nan nan nan nan nan nan nan nan nan nan nan nan nan nan nan nan nan nan nan nan nan nan 5 23 23 45 101
56 59 78 73 99 99 119 81 79 79 68 80 79 79 72 69 69 62 71 96 96 100 71 44 12 12 1 1 1 1 2 2 2 2 1 0 0 2 6 16 16 28 9 13 68 68 14 nan nan nan nan nan nan nan nan nan nan nan nan nan nan nan nan nan nan nan nan nan nan nan nan nan nan nan nan nan nan nan nan nan nan nan nan nan nan nan nan nan nan nan nan nan nan nan nan nan nan nan nan 2 2 16 42
74 62 69 60 64 64 91 79 71 71 60 46 34 34 39 49 49 34 53 57 57 36 25 35 29 29 4 1 3 3 3 4 5 5 14 12 12 3 3 15 15 19 1 15 60 60 47 nan nan nan nan nan nan nan nan nan nan nan nan nan nan nan nan nan nan nan nan nan nan nan nan nan nan nan nan nan nan nan nan nan nan nan nan nan nan nan nan nan nan nan nan nan nan nan nan nan nan nan nan nan nan 1 18
99 76 75 65 58 58 78 74 70 70 62 76 34 34 18 18 18 14 34 18 18 22 35 21 22 22 32 28 26 26 15 12 24 24 34 41 41 23 18 29 29 13 8 16 50 50 16 nan nan nan nan nan nan nan nan nan nan nan nan nan nan nan nan nan nan nan nan nan nan nan nan nan nan nan nan nan nan nan nan nan nan nan nan nan nan nan nan nan nan nan nan nan nan nan nan nan nan nan nan nan nan nan 0
110 91 76 76 38 38 75 86 82 82 68 62 45 45 17 13 13 15 40 40 40 15 20 31 22 22 62 92 61 61 54 47 33 33 35 51 51 53 63 49 49 33 33 43 61 61 8 nan nan nan 72 nan nan nan nan nan nan nan nan nan nan nan nan nan nan nan nan nan nan nan nan nan nan nan nan nan nan nan nan nan nan nan nan nan nan nan nan nan nan nan nan nan nan nan nan nan nan nan nan nan nan nan nan
75 66 70 65 21 21 55 77 79 79 70 56 33 33 15 26 26 29 29 53 53 49 39 81 81 81 77 91 85 85 81 74 22 22 18 45 45 51 87 82 82 93 89 106 115 115 26 29 141 141 153 nan nan nan nan nan nan nan nan nan nan nan nan nan nan nan nan nan nan nan nan nan nan nan nan nan nan nan nan nan nan nan nan nan nan nan nan nan nan nan nan nan nan nan nan nan nan nan nan nan nan nan nan
27 42 72 91 40 40 55 94 84 84 75 54 50 50 28 31 31 50 46 57 57 65 86 66 92 92 79 74 75 75 84 102 96 96 58 45 45 50 56 93 93 139 136 162 170 170 72 54 113 113 150 41 nan nan nan 6 6 nan nan nan nan nan nan nan nan nan nan nan nan nan nan nan nan nan nan nan nan nan nan nan nan nan nan nan nan nan nan nan nan nan nan nan nan nan nan nan nan nan nan nan nan nan nan
23 38 127 250 112 112 97 90 112 112 103 60 56 56 44 37 37 64 97 64 64 49 61 64 53 53 61 65 69 69 88 162 137 137 98 70 70 62 52 73 73 68 64 98 125 125 129 100 157 157 173 66 6 6 3 nan nan 3 9 5 5 nan nan nan nan nan nan nan nan nan nan nan nan nan nan nan nan nan nan nan nan nan nan nan nan nan nan nan nan nan nan nan nan nan nan nan nan nan nan nan nan nan nan
38 37 108 179 229 229 178 135 120 120 125 78 75 75 60 69 69 76 92 107 107 13 18 32 38 38 45 78 95 95 118 190 190 190 109 86 86 69 63 66 66 82 69 69 83 83 133 151 156 156 146 37 8 8 1 4 4 nan nan nan nan nan nan nan nan nan nan nan nan nan nan nan nan nan nan nan nan nan nan nan nan nan nan nan nan nan nan nan nan nan nan nan 1 1 2 1 1 1 0 nan nan nan nan
32 24 61 79 291 291 260 223 194 194 160 73 89 89 116 147 147 124 82 73 73 30 25 33 43 43 56 106 136 136 152 187 141 141 97 73 73 48 34 55 55 92 83 72 52 52 71 160 196 196 89 16 8 8 0 nan nan nan nan nan nan nan nan nan nan nan nan nan nan nan nan nan nan nan nan nan nan nan nan nan nan nan nan nan nan nan nan nan nan nan nan 0 2 2 2 2 2 2 2 2 2 1 1